| time (UTC) | temp F | wind direction | speed MPH | gust MPH | rain 1hr in | rain 24hr in | rain mn in | humidity % | barometer mb |
| 20260905060030 | 55 | 22 | 15.0 | 30.0 | 0.09 | 1.18 | 0.33 | 89 | 1001.7 |
| 20260905054515 | 56 | 49 | 16.0 | 31.0 | 0.09 | 1.17 | 0.31 | 89 | 1001.8 |
| 20260905053026 | 56 | 349 | 15.0 | 25.0 | 0.08 | 1.13 | 0.28 | 89 | 1001.8 |
| 20260905051507 | 56 | 16 | 8.0 | 13.0 | 0.07 | 1.12 | 0.27 | 89 | 1002.8 |
| 20260905050003 | 57 | 24 | 13.0 | 24.0 | 0.06 | 1.09 | 0.24 | 89 | 1003.2 |
| 20260905044605 | 57 | 328 | 10.0 | 19.0 | 0.05 | 1.07 | 0.22 | 89 | 1003.4 |
| 20260905043057 | 57 | 67 | 12.0 | 31.0 | 0.09 | 1.06 | 0.21 | 89 | 1002.9 |
| 20260905041556 | 57 | 360 | 10.0 | 22.0 | 0.13 | 1.05 | 0.20 | 89 | 1003.2 |
| 20260905040051 | 57 | 80 | 11.0 | 20.0 | 0.18 | 1.03 | 0.18 | 89 | 1003.9 |
| 20260905034551 | 58 | 55 | 12.0 | 25.0 | 0.21 | 1.02 | 0.17 | 89 | 1003.3 |
| 20260905033044 | 58 | 44 | 12.0 | 23.0 | 0.20 | 0.98 | 0.13 | 89 | 1003.5 |
| 20260905031538 | 59 | 65 | 13.0 | 24.0 | 0.18 | 0.91 | 0.06 | 89 | 1003.6 |
| 20260905030038 | 60 | 89 | 16.0 | 27.0 | 0.17 | 0.85 | 0.00 | 89 | 1003.4 |
| 20260905023027 | 59 | 5 | 10.0 | 19.0 | 0.15 | 0.77 | 0.77 | 89 | 1003.1 |
| 20260905021524 | 60 | 59 | 17.0 | 30.0 | 0.13 | 0.73 | 0.73 | 89 | 1002.7 |
| 20260905020033 | 60 | 10 | 13.0 | 26.0 | 0.08 | 0.68 | 0.68 | 89 | 1003.4 |
| 20260905014517 | 60 | 29 | 11.0 | 19.0 | 0.05 | 0.65 | 0.65 | 89 | 1003.8 |
| 20260905013013 | 60 | 19 | 9.0 | 19.0 | 0.04 | 0.62 | 0.62 | 89 | 1004.2 |
| 20260905011508 | 60 | 346 | 4.0 | 10.0 | 0.03 | 0.61 | 0.61 | 90 | 1004.7 |
| 20260905010009 | 59 | 65 | 4.0 | 11.0 | 0.04 | 0.60 | 0.60 | 90 | 1004.7 |
| 20260905004504 | 60 | 37 | 8.0 | 24.0 | 0.04 | 0.60 | 0.60 | 89 | 1004.7 |
| 20260905003002 | 60 | 25 | 13.0 | 27.0 | 0.03 | 0.57 | 0.57 | 89 | 1004.8 |
| 20260905001558 | 60 | 49 | 13.0 | 24.0 | 0.04 | 0.56 | 0.56 | 89 | 1005.3 |
| 20260905000054 | 60 | 5 | 8.0 | 21.0 | 0.05 | 0.56 | 0.56 | 89 | 1005.4 |
| 20260904234550 | 60 | 5 | 6.0 | 18.0 | 0.07 | 0.55 | 0.55 | 89 | 1006.0 |
| 20260904233052 | 60 | 75 | 12.0 | 20.0 | 0.07 | 0.55 | 0.55 | 89 | 1005.8 |
| 20260904231543 | 60 | 19 | 9.0 | 20.0 | 0.07 | 0.54 | 0.54 | 89 | 1006.2 |
| 20260904230041 | 60 | 24 | 6.0 | 16.0 | 0.06 | 0.51 | 0.51 | 89 | 1006.1 |
| 20260904224538 | 60 | 340 | 7.0 | 16.0 | 0.03 | 0.48 | 0.48 | 89 | 1006.1 |
| 20260904223035 | 60 | 36 | 6.0 | 23.0 | 0.04 | 0.48 | 0.48 | 89 | 1006.3 |
| 20260904221532 | 61 | 28 | 11.0 | 21.0 | 0.05 | 0.46 | 0.46 | 90 | 1006.1 |
| 20260904220028 | 61 | 25 | 8.0 | 15.0 | 0.06 | 0.46 | 0.46 | 90 | 1006.9 |
| 20260904214526 | 61 | 332 | 6.0 | 13.0 | 0.07 | 0.45 | 0.45 | 90 | 1007.0 |
| 20260904213028 | 61 | 322 | 6.0 | 14.0 | 0.09 | 0.44 | 0.44 | 91 | 1007.0 |
| 20260904211519 | 61 | 335 | 3.0 | 12.0 | 0.12 | 0.42 | 0.42 | 91 | 1007.4 |
| 20260904210025 | 61 | 38 | 2.0 | 13.0 | 0.13 | 0.39 | 0.39 | 91 | 1007.9 |
| 20260904204511 | 60 | 355 | 4.0 | 9.0 | 0.12 | 0.37 | 0.37 | 91 | 1008.2 |
| 20260904203010 | 60 | 19 | 3.0 | 6.0 | 0.12 | 0.35 | 0.35 | 91 | 1008.2 |
| 20260904201506 | 60 | 5 | 1.0 | 6.0 | 0.09 | 0.30 | 0.30 | 91 | 1008.9 |
| 20260904200003 | 60 | 351 | 1.0 | 13.0 | 0.07 | 0.27 | 0.27 | 90 | 1008.6 |
| 20260904194501 | 60 | 300 | 2.0 | 9.0 | 0.09 | 0.25 | 0.25 | 90 | 1008.7 |
| 20260904193058 | 60 | 94 | 5.0 | 10.0 | 0.12 | 0.23 | 0.23 | 90 | 1008.8 |
| 20260904191554 | 61 | 355 | 2.0 | 5.0 | 0.12 | 0.21 | 0.21 | 90 | 1009.2 |
| 20260904190052 | 61 | 9 | 2.0 | 6.0 | 0.12 | 0.20 | 0.20 | 90 | 1009.2 |
| 20260904184550 | 61 | 5 | 4.0 | 9.0 | 0.09 | 0.17 | 0.17 | 89 | 1009.3 |
| 20260904183148 | 62 | 9 | 1.0 | 4.0 | 0.03 | 0.11 | 0.11 | 88 | 1009.4 |
| 20260904181549 | 62 | 27 | 2.0 | 8.0 | 0.02 | 0.09 | 0.09 | 87 | 1009.2 |
| 20260904180041 | 63 | 300 | 2.0 | 7.0 | 0.00 | 0.08 | 0.08 | 87 | 1009.3 |
| 20260904174542 | 63 | 12 | 2.0 | 10.0 | 0.00 | 0.08 | 0.08 | 87 | 1009.5 |
| 20260904173036 | 64 | 46 | 2.0 | 5.0 | 0.00 | 0.08 | 0.08 | 87 | 1009.8 |
| 20260904171541 | 63 | 261 | 0.0 | 7.0 | 0.00 | 0.08 | 0.08 | 87 | 1010.2 |